| time (UTC) | temp F | wind direction | speed MPH | gust MPH | rain 1hr in | rain 24hr in | rain mn in | humidity % | barometer mb |
| 20260506230026 | 61 | 207 | 7.0 | 13.0 | 0.00 | 0.01 | 0.01 | 84 | 1009.6 |
| 20260506224508 | 61 | 229 | 8.0 | 17.0 | 0.00 | 0.01 | 0.01 | 83 | 1009.3 |
| 20260506223018 | 61 | 254 | 8.0 | 16.0 | 0.00 | 0.01 | 0.01 | 84 | 1009.2 |
| 20260506221518 | 61 | 202 | 8.0 | 15.0 | 0.00 | 0.01 | 0.01 | 85 | 1009.3 |
| 20260506220024 | 60 | 209 | 9.0 | 16.0 | 0.00 | 0.01 | 0.01 | 84 | 1009.3 |
| 20260506214526 | 60 | 194 | 7.0 | 15.0 | 0.00 | 0.01 | 0.01 | 84 | 1009.2 |
| 20260506213010 | 61 | 210 | 7.0 | 14.0 | 0.00 | 0.01 | 0.01 | 83 | 1009.0 |
| 20260506211521 | 61 | 165 | 7.0 | 14.0 | 0.00 | 0.01 | 0.01 | 81 | 1009.1 |
| 20260506210028 | 62 | 205 | 9.0 | 18.0 | 0.00 | 0.01 | 0.01 | 81 | 1008.9 |
| 20260506204523 | 61 | 199 | 6.0 | 13.0 | 0.00 | 0.01 | 0.01 | 83 | 1008.7 |
| 20260506203035 | 61 | 216 | 6.0 | 17.0 | 0.00 | 0.01 | 0.01 | 84 | 1008.9 |
| 20260506201514 | 60 | 148 | 7.0 | 17.0 | 0.00 | 0.01 | 0.01 | 85 | 1008.9 |
| 20260506200015 | 60 | 216 | 7.0 | 16.0 | 0.00 | 0.01 | 0.01 | 85 | 1009.1 |
| 20260506194521 | 60 | 186 | 8.0 | 17.0 | 0.00 | 0.01 | 0.01 | 86 | 1009.1 |
| 20260506193023 | 60 | 195 | 10.0 | 21.0 | 0.00 | 0.01 | 0.01 | 85 | 1009.6 |
| 20260506191528 | 60 | 207 | 11.0 | 22.0 | 0.00 | 0.01 | 0.01 | 86 | 1009.7 |
| 20260506190013 | 60 | 240 | 11.0 | 23.0 | 0.00 | 0.01 | 0.01 | 87 | 1009.7 |
| 20260506184522 | 59 | 224 | 10.0 | 19.0 | 0.01 | 0.01 | 0.01 | 89 | 1010.1 |
| 20260506183025 | 58 | 198 | 9.0 | 22.0 | 0.01 | 0.01 | 0.01 | 89 | 1010.2 |
| 20260506181504 | 58 | 207 | 8.0 | 15.0 | 0.01 | 0.01 | 0.01 | 89 | 1010.1 |
| 20260506180012 | 58 | 210 | 11.0 | 22.0 | 0.01 | 0.01 | 0.01 | 88 | 1010.6 |
| 20260506174504 | 58 | 238 | 9.0 | 18.0 | 0.00 | 0.00 | 0.00 | 87 | 1010.8 |
| 20260506173013 | 59 | 216 | 9.0 | 17.0 | 0.00 | 0.00 | 0.00 | 87 | 1010.9 |
| 20260506171511 | 59 | 188 | 7.0 | 16.0 | 0.00 | 0.00 | 0.00 | 86 | 1010.9 |
| 20260506170005 | 59 | 225 | 8.0 | 20.0 | 0.00 | 0.00 | 0.00 | 84 | 1011.2 |
| 20260506164508 | 59 | 219 | 9.0 | 19.0 | 0.00 | 0.00 | 0.00 | 84 | 1011.5 |
| 20260506163008 | 60 | 223 | 10.0 | 18.0 | 0.00 | 0.00 | 0.00 | 83 | 1011.8 |
| 20260506161506 | 60 | 202 | 10.0 | 19.0 | 0.00 | 0.00 | 0.00 | 82 | 1011.8 |
| 20260506160008 | 60 | 203 | 10.0 | 19.0 | 0.00 | 0.00 | 0.00 | 82 | 1012.0 |
| 20260506154507 | 60 | 214 | 9.0 | 19.0 | 0.00 | 0.00 | 0.00 | 81 | 1012.1 |
| 20260506153008 | 61 | 215 | 8.0 | 19.0 | 0.00 | 0.00 | 0.00 | 80 | 1012.3 |
| 20260506151509 | 62 | 219 | 9.0 | 18.0 | 0.00 | 0.00 | 0.00 | 79 | 1012.1 |
| 20260506150008 | 61 | 209 | 8.0 | 18.0 | 0.00 | 0.00 | 0.00 | 81 | 1012.3 |
| 20260506144508 | 61 | 192 | 9.0 | 18.0 | 0.00 | 0.00 | 0.00 | 81 | 1012.5 |
| 20260506143017 | 61 | 219 | 10.0 | 19.0 | 0.00 | 0.00 | 0.00 | 81 | 1012.4 |
| 20260506141512 | 61 | 207 | 12.0 | 19.0 | 0.00 | 0.00 | 0.00 | 81 | 1012.4 |
| 20260506140014 | 60 | 230 | 11.0 | 17.0 | 0.00 | 0.00 | 0.00 | 83 | 1012.4 |
| 20260506134513 | 59 | 202 | 9.0 | 18.0 | 0.00 | 0.00 | 0.00 | 84 | 1012.5 |
| 20260506133009 | 60 | 208 | 7.0 | 17.0 | 0.00 | 0.00 | 0.00 | 83 | 1012.7 |
| 20260506131516 | 60 | 240 | 10.0 | 19.0 | 0.00 | 0.00 | 0.00 | 83 | 1012.9 |
| 20260506130012 | 60 | 191 | 10.0 | 18.0 | 0.00 | 0.00 | 0.00 | 84 | 1012.9 |
| 20260506124516 | 59 | 200 | 9.0 | 19.0 | 0.00 | 0.00 | 0.00 | 85 | 1012.8 |
| 20260506123016 | 58 | 204 | 9.0 | 23.0 | 0.00 | 0.00 | 0.00 | 86 | 1012.8 |
| 20260506121513 | 58 | 219 | 12.0 | 27.0 | 0.00 | 0.00 | 0.00 | 86 | 1012.8 |
| 20260506120019 | 58 | 227 | 9.0 | 18.0 | 0.00 | 0.00 | 0.00 | 86 | 1012.5 |
| 20260506114517 | 58 | 195 | 7.0 | 19.0 | 0.00 | 0.00 | 0.00 | 88 | 1012.6 |
| 20260506113018 | 57 | 168 | 7.0 | 18.0 | 0.00 | 0.00 | 0.00 | 88 | 1012.5 |
| 20260506111521 | 57 | 229 | 8.0 | 18.0 | 0.00 | 0.00 | 0.00 | 89 | 1012.6 |
| 20260506110015 | 57 | 201 | 9.0 | 17.0 | 0.00 | 0.00 | 0.00 | 89 | 1012.6 |
| 20260506104518 | 57 | 205 | 9.0 | 20.0 | 0.00 | 0.00 | 0.00 | 89 | 1012.7 |
| 20260506103021 | 57 | 205 | 9.0 | 17.0 | 0.00 | 0.00 | 0.00 | 89 | 1012.5 |
| 20260506101533 | 57 | 200 | 11.0 | 19.0 | 0.00 | 0.00 | 0.00 | 89 | 1012.4 |
| 20260506100023 | 57 | 196 | 11.0 | 20.0 | 0.00 | 0.00 | 0.00 | 89 | 1012.4 |
| 20260506094526 | 57 | 178 | 9.0 | 20.0 | 0.00 | 0.00 | 0.00 | 89 | 1012.2 |
| 20260506093033 | 57 | 198 | 9.0 | 20.0 | 0.00 | 0.00 | 0.00 | 89 | 1012.2 |
| 20260506091525 | 57 | 207 | 8.0 | 19.0 | 0.00 | 0.00 | 0.00 | 89 | 1012.5 |
| 20260506090011 | 57 | 198 | 10.0 | 17.0 | 0.00 | 0.00 | 0.00 | 89 | 1012.7 |
| 20260506084516 | 56 | 204 | 9.0 | 19.0 | 0.00 | 0.00 | 0.00 | 89 | 1012.8 |
| 20260506083022 | 56 | 215 | 7.0 | 16.0 | 0.00 | 0.00 | 0.00 | 89 | 1012.9 |
| 20260506081532 | 56 | 215 | 8.0 | 18.0 | 0.00 | 0.00 | 0.00 | 89 | 1012.8 |
| 20260506073033 | 57 | 202 | 7.0 | 19.0 | 0.00 | 0.00 | 0.00 | 88 | 1012.8 |
| 20260506071524 | 57 | 220 | 10.0 | 21.0 | 0.00 | 0.00 | 0.00 | 88 | 1013.0 |
| 20260506061520 | 57 | 191 | 9.0 | 22.0 | 0.00 | 0.00 | 0.00 | 86 | 1013.0 |
| 20260506044551 | 58 | 213 | 12.0 | 22.0 | 0.00 | 0.00 | 0.00 | 84 | 1013.6 |
| 20260506043026 | 58 | 207 | 12.0 | 21.0 | 0.00 | 0.00 | 0.00 | 84 | 1013.5 |
| 20260506041516 | 58 | 184 | 10.0 | 24.0 | 0.00 | 0.00 | 0.00 | 83 | 1013.6 |
| 20260506040017 | 58 | 190 | 10.0 | 22.0 | 0.00 | 0.00 | 0.00 | 83 | 1013.5 |
| 20260506034543 | 58 | 202 | 10.0 | 20.0 | 0.00 | 0.00 | 0.00 | 83 | 1013.5 |
| 20260506031528 | 58 | 198 | 9.0 | 19.0 | 0.00 | 0.00 | 0.00 | 83 | 1013.7 |
| 20260506030028 | 58 | 225 | 9.0 | 20.0 | 0.00 | 0.00 | 0.00 | 83 | 1013.7 |
| 20260506024520 | 58 | 192 | 11.0 | 17.0 | 0.00 | 0.00 | 0.00 | 83 | 1013.7 |
| 20260506023025 | 58 | 227 | 8.0 | 20.0 | 0.00 | 0.00 | 0.00 | 83 | 1013.7 |
| 20260506021525 | 58 | 146 | 10.0 | 20.0 | 0.00 | 0.00 | 0.00 | 82 | 1013.7 |
| 20260506020010 | 58 | 208 | 8.0 | 23.0 | 0.00 | 0.00 | 0.00 | 82 | 1013.7 |
| 20260506014520 | 58 | 217 | 9.0 | 18.0 | 0.00 | 0.00 | 0.00 | 82 | 1013.6 |
| 20260506013019 | 58 | 153 | 10.0 | 20.0 | 0.00 | 0.00 | 0.00 | 82 | 1013.4 |
| 20260506011507 | 58 | 210 | 8.0 | 18.0 | 0.00 | 0.00 | 0.00 | 82 | 1013.4 |
| 20260506010012 | 57 | 191 | 10.0 | 19.0 | 0.00 | 0.00 | 0.00 | 83 | 1013.3 |
| 20260506004529 | 58 | 196 | 8.0 | 19.0 | 0.00 | 0.00 | 0.00 | 83 | 1013.2 |
| 20260506003035 | 58 | 196 | 9.0 | 20.0 | 0.00 | 0.00 | 0.00 | 82 | 1013.1 |
| 20260506001523 | 58 | 224 | 8.0 | 21.0 | 0.00 | 0.00 | 0.00 | 82 | 1012.9 |
| 20260506000005 | 58 | 217 | 9.0 | 19.0 | 0.00 | 0.00 | 0.00 | 80 | 1012.8 |
| 20260505234510 | 59 | 188 | 11.0 | 22.0 | 0.00 | 0.00 | 0.00 | 80 | 1012.8 |
| 20260505233012 | 59 | 189 | 12.0 | 21.0 | 0.00 | 0.00 | 0.00 | 78 | 1012.7 |
| 20260505231521 | 61 | 192 | 11.0 | 21.0 | 0.00 | 0.00 | 0.00 | 75 | 1012.6 |